EZY39EG EGKK-LGSK

Flight info

Callsign EZY39EG
Flight time 2h 58m
Altitude 34000
Route MIMFO1M MIMFO Y312 DVR UL9 KONAN UL607 KOK DCT LNO DCT MATUG DCT AMASI DCT BOMBI DCT TENLO DCT LAMSI DCT OBUTI DCT MEDUX UM867 KOGAT DCT ERANA UL737 TSL TSL1C
Aircraft A32N/M-V/N

Departure

Time 2026-04-16 04:24
Airport London Gatwick Airport (EGKK)

Arrival

Time 2026-04-16 07:22
Airport Skiathos Island National Airport (LGSK)
Time Latitude Longitude Altitude Speed Heading
2026-04-16 04:08 51.15354 -0.17700 204 ft 0 kts 348°
2026-04-16 04:17 51.15347 -0.17698 204 ft 3 kts 348°
2026-04-16 04:17 51.15328 -0.17692 204 ft 3 kts 349°
2026-04-16 04:17 51.15308 -0.17686 204 ft 3 kts 354°
2026-04-16 04:18 51.15288 -0.17684 206 ft 3 kts
2026-04-16 04:18 51.15271 -0.17692 212 ft 3 kts 57°
2026-04-16 04:18 51.15267 -0.17701 212 ft 1 kts 77°
2026-04-16 04:21 51.15268 -0.17694 213 ft 4 kts 77°
2026-04-16 04:21 51.15284 -0.17579 204 ft 14 kts 77°
2026-04-16 04:21 51.15304 -0.17413 215 ft 16 kts 82°
2026-04-16 04:21 51.15237 -0.17306 208 ft 14 kts 141°
2026-04-16 04:22 51.15182 -0.17186 209 ft 14 kts 84°
2026-04-16 04:22 51.15207 -0.17032 205 ft 15 kts 81°
2026-04-16 04:22 51.15222 -0.16857 205 ft 15 kts 102°
2026-04-16 04:22 51.15138 -0.16825 208 ft 14 kts 211°
2026-04-16 04:23 51.15101 -0.16968 209 ft 24 kts 258°
2026-04-16 04:23 51.15012 -0.17551 217 ft 83 kts 256°
2026-04-16 04:23 51.14856 -0.18696 210 ft 126 kts 257°
2026-04-16 04:23 51.14627 -0.20223 279 ft 150 kts 255°
2026-04-16 04:24 51.14393 -0.21843 704 ft 151 kts 255°
2026-04-16 04:24 51.14168 -0.23498 1193 ft 152 kts 256°
2026-04-16 04:24 51.13983 -0.25121 1828 ft 145 kts 255°
2026-04-16 04:24 51.13761 -0.26763 2242 ft 159 kts 254°
2026-04-16 04:25 51.13736 -0.28608 2625 ft 181 kts 283°
2026-04-16 04:25 51.14541 -0.30241 3213 ft 201 kts 319°
2026-04-16 04:25 51.15939 -0.30859 3778 ft 225 kts 354°
2026-04-16 04:25 51.17544 -0.30146 4158 ft 255 kts 28°
2026-04-16 04:26 51.18849 -0.28190 4918 ft 262 kts 54°
2026-04-16 04:26 51.19705 -0.25606 5671 ft 265 kts 70°
2026-04-16 04:26 51.20247 -0.22779 6465 ft 268 kts 78°
2026-04-16 04:26 51.20642 -0.19851 7170 ft 274 kts 81°
2026-04-16 04:27 51.21010 -0.16757 7566 ft 295 kts 81°
2026-04-16 04:27 51.21403 -0.13452 8069 ft 308 kts 81°
2026-04-16 04:27 51.21815 -0.10077 8851 ft 312 kts 81°
2026-04-16 04:27 51.22240 -0.06656 9647 ft 316 kts 80°
2026-04-16 04:28 51.22676 -0.03194 10373 ft 322 kts 80°
2026-04-16 04:28 51.23128 0.00421 10491 ft 343 kts 81°
2026-04-16 04:28 51.23609 0.04273 10674 ft 364 kts 80°
2026-04-16 04:28 51.24111 0.08296 11186 ft 373 kts 80°
2026-04-16 04:29 51.24618 0.12363 11870 ft 376 kts 80°
2026-04-16 04:29 51.25121 0.16502 12496 ft 381 kts 83°
2026-04-16 04:29 51.25332 0.20726 13149 ft 383 kts 93°
2026-04-16 04:29 51.25123 0.24974 13722 ft 386 kts 101°
2026-04-16 04:30 51.24785 0.29246 14277 ft 390 kts 100°
2026-04-16 04:30 51.24461 0.33515 14833 ft 395 kts 100°
2026-04-16 04:30 51.24125 0.37947 15424 ft 399 kts 100°
2026-04-16 04:30 51.23788 0.42364 16015 ft 403 kts 100°
2026-04-16 04:31 51.23447 0.46832 16591 ft 408 kts 100°
2026-04-16 04:31 51.23102 0.51342 17175 ft 411 kts 100°
2026-04-16 04:31 51.22750 0.55890 17735 ft 416 kts 100°
2026-04-16 04:31 51.22391 0.60492 18288 ft 420 kts 100°
2026-04-16 04:32 51.22028 0.65133 18843 ft 423 kts 99°
2026-04-16 04:32 51.21660 0.69810 19388 ft 427 kts 99°
2026-04-16 04:32 51.21288 0.74523 19932 ft 430 kts 99°
2026-04-16 04:32 51.20912 0.79253 20464 ft 434 kts 99°
2026-04-16 04:33 51.20529 0.84049 21004 ft 437 kts 99°
2026-04-16 04:33 51.20141 0.88881 21533 ft 441 kts 99°
2026-04-16 04:33 51.19749 0.93750 22060 ft 444 kts 99°
2026-04-16 04:33 51.19352 0.98646 22686 ft 445 kts 99°
2026-04-16 04:34 51.18951 1.03557 23163 ft 449 kts 99°
2026-04-16 04:34 51.18544 1.08512 23599 ft 453 kts 99°
2026-04-16 04:34 51.18133 1.13494 24001 ft 456 kts 99°
2026-04-16 04:34 51.17716 1.18523 24377 ft 459 kts 99°
2026-04-16 04:35 51.17294 1.23584 24748 ft 462 kts 99°
2026-04-16 04:35 51.16867 1.28678 25107 ft 465 kts 99°
2026-04-16 04:35 51.16441 1.33745 25458 ft 468 kts 99°
2026-04-16 04:35 51.16025 1.38900 25805 ft 472 kts 97°
2026-04-16 04:36 51.15752 1.44128 26146 ft 475 kts 95°
2026-04-16 04:36 51.15540 1.49380 26548 ft 476 kts 95°
2026-04-16 04:36 51.15325 1.54675 26858 ft 480 kts 95°
2026-04-16 04:36 51.15091 1.59984 27184 ft 482 kts 95°
2026-04-16 04:37 51.14839 1.65324 27501 ft 485 kts 95°
2026-04-16 04:37 51.14576 1.70695 27811 ft 488 kts 95°
2026-04-16 04:37 51.14306 1.76093 28117 ft 490 kts 95°
2026-04-16 04:37 51.14031 1.81517 28417 ft 493 kts 95°
2026-04-16 04:38 51.13751 1.86977 28702 ft 495 kts 95°
2026-04-16 04:38 51.13469 1.92452 29020 ft 496 kts 96°
2026-04-16 04:38 51.13184 1.97934 29323 ft 498 kts 96°
2026-04-16 04:38 51.12894 2.03442 29579 ft 501 kts 96°
2026-04-16 04:39 51.12601 2.08976 29848 ft 503 kts 96°
2026-04-16 04:39 51.12303 2.14534 30107 ft 505 kts 96°
2026-04-16 04:39 51.12002 2.20103 30354 ft 507 kts 96°
2026-04-16 04:39 51.11697 2.25709 30594 ft 509 kts 96°
2026-04-16 04:40 51.11388 2.31329 30833 ft 511 kts 96°
2026-04-16 04:40 51.11075 2.36969 31057 ft 513 kts 96°
2026-04-16 04:40 51.10759 2.42608 31436 ft 511 kts 96°
2026-04-16 04:40 51.10442 2.48232 31744 ft 510 kts 96°
2026-04-16 04:41 51.10122 2.53845 32035 ft 510 kts 96°
2026-04-16 04:41 51.09800 2.59465 32321 ft 510 kts 96°
2026-04-16 04:41 51.09407 2.65066 32614 ft 509 kts 101°
2026-04-16 04:41 51.08654 2.70568 32894 ft 508 kts 105°
2026-04-16 04:42 51.07811 2.76010 33167 ft 507 kts 105°
2026-04-16 04:42 51.06976 2.81459 33422 ft 507 kts 105°
2026-04-16 04:42 51.06143 2.86908 33751 ft 505 kts 105°
2026-04-16 04:42 51.05315 2.92317 33982 ft 503 kts 105°
2026-04-16 04:43 51.04485 2.97708 34089 ft 502 kts 105°
2026-04-16 04:43 51.03653 3.03079 34157 ft 502 kts 105°
2026-04-16 04:43 51.01978 3.13838 34162 ft 501 kts 105°
2026-04-16 04:44 51.00292 3.24592 34169 ft 501 kts 105°
2026-04-16 04:44 50.98603 3.35300 34172 ft 498 kts 105°
2026-04-16 04:45 50.96911 3.45956 34177 ft 499 kts 105°
2026-04-16 04:45 50.95208 3.56608 34176 ft 498 kts 105°
2026-04-16 04:46 50.93495 3.67260 34181 ft 499 kts 106°
2026-04-16 04:46 50.91784 3.77833 34179 ft 498 kts 106°
2026-04-16 04:47 50.90060 3.88419 34182 ft 496 kts 106°
2026-04-16 04:47 50.88325 3.99003 34185 ft 496 kts 106°
2026-04-16 04:48 50.86583 4.09567 34183 ft 496 kts 106°
2026-04-16 04:48 50.84829 4.20133 34184 ft 496 kts 106°
2026-04-16 04:49 50.83066 4.30691 34185 ft 496 kts 106°
2026-04-16 04:49 50.81294 4.41241 34179 ft 496 kts 107°
2026-04-16 04:50 50.79512 4.51780 34185 ft 496 kts 107°
2026-04-16 04:50 50.77722 4.62307 34185 ft 495 kts 107°
2026-04-16 04:51 50.75927 4.72795 34194 ft 493 kts 107°
2026-04-16 04:51 50.74128 4.83251 34195 ft 494 kts 107°
2026-04-16 04:52 50.72625 4.91931 34200 ft 493 kts 107°
2026-04-16 04:52 50.70808 5.02372 34203 ft 493 kts 107°
2026-04-16 04:53 50.68982 5.12806 34208 ft 493 kts 107°
2026-04-16 04:53 50.67156 5.23180 34211 ft 489 kts 107°
2026-04-16 04:54 50.65324 5.33519 34211 ft 490 kts 107°
2026-04-16 04:54 50.63483 5.43854 34211 ft 490 kts 107°
2026-04-16 04:55 50.61634 5.54175 34217 ft 490 kts 108°
2026-04-16 04:55 50.59779 5.64482 34213 ft 488 kts 108°
2026-04-16 04:56 50.57684 5.74611 34215 ft 486 kts 115°
2026-04-16 04:56 50.55161 5.84475 34215 ft 486 kts 114°
2026-04-16 04:57 50.52659 5.94347 34210 ft 486 kts 114°
2026-04-16 04:57 50.50139 6.04203 34201 ft 486 kts 114°
2026-04-16 04:58 50.47635 6.13943 34198 ft 483 kts 115°
2026-04-16 04:58 50.45110 6.23715 34200 ft 483 kts 115°
2026-04-16 04:59 50.42562 6.33535 34189 ft 483 kts 115°
2026-04-16 04:59 50.40738 6.43629 34190 ft 487 kts 104°
2026-04-16 05:00 50.39325 6.54004 34187 ft 487 kts 104°
2026-04-16 05:00 50.37887 6.64367 34189 ft 486 kts 104°
2026-04-16 05:01 50.36438 6.74718 34184 ft 486 kts 104°
2026-04-16 05:01 50.34980 6.85063 34189 ft 486 kts 104°
2026-04-16 05:02 50.33513 6.95405 34188 ft 488 kts 104°
2026-04-16 05:02 50.32029 7.05794 34186 ft 489 kts 105°
2026-04-16 05:03 50.30540 7.16150 34185 ft 488 kts 105°
2026-04-16 05:04 50.28285 7.31692 34189 ft 488 kts 105°
2026-04-16 05:04 50.26769 7.42057 34193 ft 489 kts 105°
2026-04-16 05:05 50.25243 7.52425 34206 ft 489 kts 105°
2026-04-16 05:05 50.23711 7.62769 34205 ft 489 kts 105°
2026-04-16 05:06 50.22179 7.73057 34206 ft 489 kts 105°
2026-04-16 05:06 50.20632 7.83392 34192 ft 489 kts 105°
2026-04-16 05:07 50.19077 7.93718 34203 ft 489 kts 105°
2026-04-16 05:07 50.17511 8.04035 34209 ft 488 kts 105°
2026-04-16 05:08 50.15937 8.14348 34212 ft 489 kts 105°
2026-04-16 05:08 50.14353 8.24656 34198 ft 489 kts 106°
2026-04-16 05:09 50.12759 8.34963 34208 ft 490 kts 106°
2026-04-16 05:09 50.11153 8.45279 34188 ft 489 kts 106°
2026-04-16 05:10 50.09542 8.55564 34213 ft 489 kts 106°
2026-04-16 05:10 50.07921 8.65845 34216 ft 489 kts 106°
2026-04-16 05:11 50.06290 8.76134 34209 ft 489 kts 106°
2026-04-16 05:11 50.04275 8.86191 34210 ft 487 kts 112°
2026-04-16 05:12 50.02034 8.96127 34215 ft 487 kts 112°
2026-04-16 05:12 49.99793 9.06057 34213 ft 487 kts 112°
2026-04-16 05:13 49.97540 9.15969 34210 ft 487 kts 112°
2026-04-16 05:13 49.95274 9.25882 34217 ft 487 kts 112°
2026-04-16 05:14 49.92998 9.35789 34213 ft 487 kts 112°
2026-04-16 05:14 49.90717 9.45671 34213 ft 487 kts 113°
2026-04-16 05:15 49.88425 9.55559 34208 ft 487 kts 113°
2026-04-16 05:15 49.86131 9.65408 34205 ft 485 kts 113°
2026-04-16 05:16 49.83835 9.75219 34207 ft 486 kts 113°
2026-04-16 05:16 49.81529 9.85032 34208 ft 485 kts 113°
2026-04-16 05:17 49.79210 9.94848 34204 ft 486 kts 113°
2026-04-16 05:17 49.76884 10.04657 34216 ft 485 kts 113°
2026-04-16 05:18 49.74549 10.14455 34207 ft 484 kts 113°
2026-04-16 05:18 49.72214 10.24205 34222 ft 483 kts 113°
2026-04-16 05:19 49.69873 10.33938 34224 ft 483 kts 113°
2026-04-16 05:19 49.67527 10.43650 34221 ft 482 kts 113°
2026-04-16 05:20 49.65176 10.53342 34226 ft 482 kts 113°
2026-04-16 05:20 49.62815 10.63032 34231 ft 483 kts 113°
2026-04-16 05:21 49.60444 10.72722 34224 ft 483 kts 114°
2026-04-16 05:21 49.58063 10.82409 34223 ft 483 kts 114°
2026-04-16 05:22 49.55674 10.92088 34217 ft 483 kts 114°
2026-04-16 05:22 49.53277 11.01760 34216 ft 483 kts 114°
2026-04-16 05:23 49.50420 11.11072 34215 ft 481 kts 120°
2026-04-16 05:23 49.47408 11.20254 34218 ft 481 kts 120°
2026-04-16 05:24 49.44395 11.29432 34229 ft 481 kts 120°
2026-04-16 05:24 49.41370 11.38585 34223 ft 481 kts 120°
2026-04-16 05:25 49.38355 11.47667 34234 ft 480 kts 120°
2026-04-16 05:25 49.35315 11.56791 34220 ft 480 kts 120°
2026-04-16 05:26 49.32250 11.65958 34211 ft 480 kts 120°
2026-04-16 05:26 49.29222 11.74984 34208 ft 479 kts 120°
2026-04-16 05:27 49.26168 11.84054 34208 ft 479 kts 120°
2026-04-16 05:27 49.23109 11.93105 34208 ft 478 kts 120°
2026-04-16 05:28 49.20048 12.02129 34215 ft 478 kts 120°
2026-04-16 05:28 49.16977 12.11150 34209 ft 478 kts 120°
2026-04-16 05:29 49.13901 12.20158 34204 ft 478 kts 120°
2026-04-16 05:29 49.10819 12.29151 34204 ft 478 kts 120°
2026-04-16 05:30 49.07727 12.38139 34192 ft 478 kts 120°
2026-04-16 05:30 49.04633 12.47103 34214 ft 478 kts 120°
2026-04-16 05:31 49.01533 12.56054 34213 ft 478 kts 120°
2026-04-16 05:31 48.98425 12.64995 34215 ft 478 kts 120°
2026-04-16 05:32 48.95314 12.73915 34217 ft 478 kts 120°
2026-04-16 05:32 48.92192 12.82836 34215 ft 478 kts 120°
2026-04-16 05:33 48.89059 12.91758 34216 ft 478 kts 120°
2026-04-16 05:33 48.85922 13.00657 34219 ft 478 kts 120°
2026-04-16 05:34 48.82783 13.09536 34221 ft 478 kts 121°
2026-04-16 05:34 48.79634 13.18409 34222 ft 478 kts 121°
2026-04-16 05:35 48.76479 13.27269 34233 ft 477 kts 120°
2026-04-16 05:35 48.73322 13.36107 34229 ft 476 kts 120°
2026-04-16 05:36 48.70163 13.44921 34224 ft 476 kts 120°
2026-04-16 05:36 48.67535 13.52222 34217 ft 475 kts 121°
2026-04-16 05:37 48.63635 13.60189 34217 ft 469 kts 137°
2026-04-16 05:37 48.58717 13.66607 34214 ft 467 kts 143°
2026-04-16 05:38 48.53707 13.72841 34211 ft 467 kts 143°
2026-04-16 05:38 48.48700 13.79078 34202 ft 467 kts 143°
2026-04-16 05:39 48.43688 13.85297 34208 ft 466 kts 143°
2026-04-16 05:39 48.38680 13.91493 34212 ft 466 kts 142°
2026-04-16 05:40 48.33660 13.97686 34206 ft 466 kts 142°
2026-04-16 05:40 48.28640 14.03863 34205 ft 466 kts 142°
2026-04-16 05:41 48.23617 14.10029 34231 ft 466 kts 143°
2026-04-16 05:41 48.18593 14.16178 34234 ft 466 kts 142°
2026-04-16 05:42 48.13565 14.22317 34235 ft 466 kts 142°
2026-04-16 05:42 48.08532 14.28444 34237 ft 466 kts 142°
2026-04-16 05:43 48.03503 14.34553 34236 ft 466 kts 142°
2026-04-16 05:43 47.98461 14.40661 34230 ft 466 kts 142°
2026-04-16 05:44 47.93425 14.46747 34223 ft 466 kts 142°
2026-04-16 05:44 47.88378 14.52828 34225 ft 466 kts 142°
2026-04-16 05:45 47.83333 14.58892 34221 ft 466 kts 142°
2026-04-16 05:45 47.78290 14.64940 34216 ft 466 kts 142°
2026-04-16 05:46 47.73242 14.70977 34216 ft 466 kts 142°
2026-04-16 05:46 47.68194 14.76998 34215 ft 465 kts 142°
2026-04-16 05:47 47.63156 14.82994 34216 ft 465 kts 142°
2026-04-16 05:47 47.58102 14.88992 34207 ft 465 kts 142°
2026-04-16 05:48 47.53056 14.94967 34202 ft 465 kts 142°
2026-04-16 05:48 47.48003 15.00934 34200 ft 465 kts 142°
2026-04-16 05:49 47.42947 15.06888 34204 ft 464 kts 142°
2026-04-16 05:49 47.37893 15.12825 34200 ft 464 kts 141°
2026-04-16 05:50 47.32834 15.18754 34196 ft 465 kts 141°
2026-04-16 05:50 47.27771 15.24672 34189 ft 464 kts 141°
2026-04-16 05:51 47.22711 15.30572 34188 ft 464 kts 141°
2026-04-16 05:51 47.17639 15.36471 34186 ft 464 kts 141°
2026-04-16 05:52 47.12567 15.42354 34193 ft 465 kts 141°
2026-04-16 05:52 47.07489 15.48231 34210 ft 465 kts 141°
2026-04-16 05:53 47.02405 15.54100 34210 ft 465 kts 141°
2026-04-16 05:53 46.97323 15.59952 34210 ft 465 kts 141°
2026-04-16 05:54 46.92232 15.65797 34207 ft 465 kts 141°
2026-04-16 05:54 46.87137 15.71633 34206 ft 465 kts 141°
2026-04-16 05:55 46.82040 15.77459 34198 ft 465 kts 141°
2026-04-16 05:55 46.76973 15.83236 34195 ft 465 kts 141°
2026-04-16 05:56 46.71872 15.89036 34195 ft 465 kts 141°
2026-04-16 05:56 46.66777 15.94815 34187 ft 464 kts 141°
2026-04-16 05:57 46.61678 16.00586 34186 ft 464 kts 141°
2026-04-16 05:57 46.56581 16.06341 34185 ft 464 kts 141°
2026-04-16 05:58 46.51479 16.12088 34183 ft 463 kts 141°
2026-04-16 05:58 46.46380 16.17816 34181 ft 463 kts 141°
2026-04-16 05:59 46.41288 16.23527 34178 ft 463 kts 141°
2026-04-16 05:59 46.36189 16.29231 34179 ft 463 kts 141°
2026-04-16 06:00 46.31080 16.34916 34182 ft 463 kts 141°
2026-04-16 06:00 46.25985 16.40590 34182 ft 463 kts 140°
2026-04-16 06:01 46.20877 16.46274 34183 ft 463 kts 141°
2026-04-16 06:01 46.15777 16.51934 34189 ft 463 kts 140°
2026-04-16 06:02 46.08146 16.60371 34178 ft 460 kts 140°
2026-04-16 06:02 46.03092 16.65943 34179 ft 460 kts 140°
2026-04-16 06:03 45.98010 16.71530 34173 ft 460 kts 140°
2026-04-16 06:03 45.92917 16.77117 34176 ft 460 kts 140°
2026-04-16 06:04 45.87845 16.82663 34175 ft 456 kts 140°
2026-04-16 06:04 45.82812 16.88159 34158 ft 454 kts 140°
2026-04-16 06:05 45.77790 16.93631 34162 ft 455 kts 140°
2026-04-16 06:05 45.72728 16.99133 34165 ft 457 kts 140°
2026-04-16 06:06 45.67668 17.04617 34159 ft 456 kts 140°
2026-04-16 06:06 45.62632 17.10061 34162 ft 453 kts 139°
2026-04-16 06:07 45.57607 17.15486 34162 ft 454 kts 139°
2026-04-16 06:07 45.52566 17.20915 34164 ft 454 kts 139°
2026-04-16 06:08 45.47519 17.26336 34170 ft 454 kts 139°
2026-04-16 06:08 45.42459 17.31759 34169 ft 455 kts 139°
2026-04-16 06:09 45.37437 17.37127 34159 ft 450 kts 139°
2026-04-16 06:09 45.32423 17.42479 34160 ft 451 kts 139°
2026-04-16 06:10 45.27401 17.47826 34152 ft 451 kts 139°
2026-04-16 06:10 45.22408 17.53128 34157 ft 451 kts 139°
2026-04-16 06:11 45.17401 17.58431 34168 ft 446 kts 139°
2026-04-16 06:11 45.12450 17.63666 34152 ft 445 kts 139°
2026-04-16 06:12 45.07484 17.68908 34151 ft 445 kts 139°
2026-04-16 06:12 45.02511 17.74141 34147 ft 445 kts 139°
2026-04-16 06:13 44.97544 17.79358 34167 ft 445 kts 139°
2026-04-16 06:13 44.92571 17.84574 34157 ft 446 kts 140°
2026-04-16 06:14 44.87588 17.89785 34157 ft 446 kts 140°
2026-04-16 06:14 44.82597 17.94992 34160 ft 446 kts 140°
2026-04-16 06:15 44.77634 18.00159 34166 ft 447 kts 140°
2026-04-16 06:15 44.72630 18.05356 34161 ft 447 kts 140°
2026-04-16 06:16 44.67618 18.10560 34147 ft 448 kts 141°
2026-04-16 06:16 44.62594 18.15757 34152 ft 449 kts 141°
2026-04-16 06:17 44.57554 18.20957 34153 ft 450 kts 141°
2026-04-16 06:17 44.52512 18.26148 34163 ft 450 kts 141°
2026-04-16 06:18 44.47453 18.31346 34170 ft 451 kts 142°
2026-04-16 06:18 44.42388 18.36543 34164 ft 452 kts 143°
2026-04-16 06:19 44.37306 18.41741 34172 ft 453 kts 142°
2026-04-16 06:19 44.32212 18.46941 34183 ft 453 kts 143°
2026-04-16 06:20 44.27125 18.52121 34159 ft 451 kts 143°
2026-04-16 06:20 44.22040 18.57291 34156 ft 452 kts 144°
2026-04-16 06:21 44.16966 18.62435 34155 ft 450 kts 144°
2026-04-16 06:21 44.11885 18.67575 34155 ft 452 kts 144°
2026-04-16 06:22 44.07660 18.71841 34152 ft 452 kts 144°
2026-04-16 06:22 44.02564 18.76977 34155 ft 453 kts 144°
2026-04-16 06:23 43.97494 18.82081 34156 ft 447 kts 146°
2026-04-16 06:23 43.92442 18.87147 34149 ft 449 kts 146°
2026-04-16 06:24 43.87384 18.92209 34154 ft 448 kts 146°
2026-04-16 06:24 43.82325 18.97263 34149 ft 448 kts 146°
2026-04-16 06:25 43.77261 19.02313 34140 ft 448 kts 147°
2026-04-16 06:25 43.72198 19.07350 34158 ft 448 kts 147°
2026-04-16 06:26 43.67136 19.12374 34141 ft 446 kts 147°
2026-04-16 06:26 43.62091 19.17370 34144 ft 447 kts 147°
2026-04-16 06:27 43.57037 19.22365 34144 ft 447 kts 147°
2026-04-16 06:27 43.52025 19.27305 34138 ft 445 kts 147°
2026-04-16 06:28 43.46998 19.32252 34137 ft 444 kts 147°
2026-04-16 06:28 43.41969 19.37190 34136 ft 444 kts 147°
2026-04-16 06:29 43.36936 19.42122 34146 ft 444 kts 147°
2026-04-16 06:29 43.31898 19.47049 34136 ft 445 kts 147°
2026-04-16 06:30 43.26860 19.51964 34147 ft 444 kts 147°
2026-04-16 06:30 43.21828 19.56866 34146 ft 444 kts 147°
2026-04-16 06:31 43.16791 19.61762 34146 ft 444 kts 147°
2026-04-16 06:31 43.11747 19.66655 34139 ft 444 kts 147°
2026-04-16 06:32 43.06709 19.71532 34138 ft 443 kts 147°
2026-04-16 06:32 43.01670 19.76399 34134 ft 443 kts 147°
2026-04-16 06:33 42.96639 19.81250 34135 ft 443 kts 147°
2026-04-16 06:33 42.91604 19.86095 34133 ft 442 kts 147°
2026-04-16 06:34 42.86573 19.90928 34126 ft 442 kts 147°
2026-04-16 06:34 42.81551 19.95746 34133 ft 442 kts 147°
2026-04-16 06:35 42.76538 20.00575 34126 ft 442 kts 144°
2026-04-16 06:35 42.72201 20.06445 34127 ft 445 kts 131°
2026-04-16 06:36 42.68278 20.12962 34123 ft 445 kts 132°
2026-04-16 06:36 42.64351 20.19450 34109 ft 444 kts 132°
2026-04-16 06:37 42.60410 20.25910 34113 ft 444 kts 132°
2026-04-16 06:37 42.56455 20.32340 34124 ft 443 kts 132°
2026-04-16 06:38 42.52245 20.38410 34121 ft 440 kts 141°
2026-04-16 06:38 42.47661 20.43854 33682 ft 437 kts 141°
2026-04-16 06:39 42.45356 20.46546 33005 ft 438 kts 141°
2026-04-16 06:39 42.43033 20.49233 32160 ft 441 kts 141°
2026-04-16 06:39 42.40685 20.51931 31292 ft 444 kts 141°
2026-04-16 06:39 42.38318 20.54645 30453 ft 447 kts 141°
2026-04-16 06:40 42.35945 20.57363 29747 ft 446 kts 141°
2026-04-16 06:40 42.33602 20.60045 29425 ft 436 kts 141°
2026-04-16 06:40 42.28958 20.65351 29431 ft 442 kts 141°
2026-04-16 06:41 42.24267 20.70697 29427 ft 440 kts 141°
2026-04-16 06:41 42.19579 20.76028 29432 ft 441 kts 141°
2026-04-16 06:42 42.14920 20.81316 29424 ft 440 kts 142°
2026-04-16 06:42 42.10231 20.86628 29421 ft 441 kts 142°
2026-04-16 06:43 42.05550 20.91921 29430 ft 438 kts 142°
2026-04-16 06:43 42.00876 20.97193 29426 ft 439 kts 142°
2026-04-16 06:44 41.96199 21.02459 29430 ft 439 kts 142°
2026-04-16 06:44 41.91520 21.07719 29428 ft 438 kts 142°
2026-04-16 06:45 41.86840 21.12967 29430 ft 439 kts 142°
2026-04-16 06:45 41.82149 21.18220 29424 ft 440 kts 142°
2026-04-16 06:46 41.77453 21.23469 29424 ft 440 kts 142°
2026-04-16 06:46 41.72751 21.28711 29423 ft 439 kts 142°
2026-04-16 06:47 41.68053 21.33939 29424 ft 440 kts 142°
2026-04-16 06:47 41.63348 21.39164 29419 ft 440 kts 142°
2026-04-16 06:48 41.58638 21.44383 29425 ft 439 kts 142°
2026-04-16 06:48 41.53921 21.49602 29426 ft 441 kts 143°
2026-04-16 06:49 41.49201 21.54815 29423 ft 440 kts 143°
2026-04-16 06:49 41.44476 21.60020 29463 ft 441 kts 143°
2026-04-16 06:50 41.39745 21.65223 29512 ft 441 kts 143°
2026-04-16 06:50 41.35010 21.70419 29568 ft 442 kts 143°
2026-04-16 06:51 41.30265 21.75619 29619 ft 442 kts 143°
2026-04-16 06:51 41.25515 21.80813 29662 ft 444 kts 143°
2026-04-16 06:52 41.20731 21.86032 29718 ft 444 kts 143°
2026-04-16 06:52 41.15949 21.91240 29768 ft 445 kts 143°
2026-04-16 06:53 41.11158 21.96446 29822 ft 446 kts 143°
2026-04-16 06:53 41.06366 22.01646 29875 ft 444 kts 143°
2026-04-16 06:54 41.01604 22.06804 29932 ft 442 kts 143°
2026-04-16 06:54 40.96865 22.11923 29988 ft 443 kts 143°
2026-04-16 06:55 40.92057 22.17106 30036 ft 449 kts 143°
2026-04-16 06:55 40.87226 22.22309 30091 ft 448 kts 143°
2026-04-16 06:56 40.82390 22.27505 30143 ft 448 kts 143°
2026-04-16 06:56 40.77579 22.32664 30190 ft 442 kts 143°
2026-04-16 06:57 40.72790 22.37789 30246 ft 444 kts 143°
2026-04-16 06:57 40.67984 22.42923 30290 ft 444 kts 143°
2026-04-16 06:58 40.63171 22.48052 30335 ft 447 kts 143°
2026-04-16 06:58 40.58335 22.53197 30381 ft 447 kts 143°
2026-04-16 06:59 40.53490 22.58343 30412 ft 447 kts 143°
2026-04-16 06:59 40.48680 22.63442 30413 ft 447 kts 143°
2026-04-16 07:00 40.43811 22.68593 30414 ft 447 kts 143°
2026-04-16 07:01 40.36542 22.76266 30415 ft 447 kts 143°
2026-04-16 07:01 40.31679 22.81383 30409 ft 450 kts 143°
2026-04-16 07:02 40.26806 22.86504 30405 ft 447 kts 143°
2026-04-16 07:02 40.21984 22.91562 30401 ft 448 kts 143°
2026-04-16 07:03 40.17123 22.96651 30398 ft 447 kts 143°
2026-04-16 07:03 40.12261 23.01732 30396 ft 447 kts 143°
2026-04-16 07:04 40.07397 23.06806 30402 ft 447 kts 143°
2026-04-16 07:04 40.02531 23.11872 30398 ft 446 kts 143°
2026-04-16 07:05 39.97682 23.16911 30396 ft 446 kts 143°
2026-04-16 07:05 39.92823 23.21950 30395 ft 446 kts 143°
2026-04-16 07:06 39.87973 23.26970 30395 ft 446 kts 143°
2026-04-16 07:06 39.83116 23.31990 30395 ft 446 kts 143°
2026-04-16 07:07 39.78257 23.37002 30398 ft 446 kts 143°
2026-04-16 07:07 39.74228 23.41150 30398 ft 441 kts 143°
2026-04-16 07:08 39.69424 23.46089 30365 ft 439 kts 143°
2026-04-16 07:08 39.67035 23.48541 30015 ft 437 kts 143°
2026-04-16 07:08 39.63892 23.51764 29271 ft 431 kts 143°
2026-04-16 07:08 39.62302 23.53393 28898 ft 430 kts 143°
2026-04-16 07:09 39.59956 23.55794 28356 ft 429 kts 143°
2026-04-16 07:09 39.57629 23.58176 27826 ft 425 kts 143°
2026-04-16 07:09 39.55315 23.60543 27309 ft 422 kts 143°
2026-04-16 07:09 39.53017 23.62889 26797 ft 420 kts 143°
2026-04-16 07:10 39.50724 23.65226 26306 ft 419 kts 142°
2026-04-16 07:10 39.48447 23.67545 25813 ft 414 kts 142°
2026-04-16 07:10 39.46197 23.69836 25329 ft 410 kts 142°
2026-04-16 07:10 39.43995 23.72077 24858 ft 407 kts 142°
2026-04-16 07:11 39.41772 23.74336 24392 ft 406 kts 142°
2026-04-16 07:11 39.39559 23.76582 23920 ft 401 kts 142°
2026-04-16 07:11 39.37384 23.78787 23425 ft 394 kts 142°
2026-04-16 07:11 39.35237 23.80966 22834 ft 390 kts 142°
2026-04-16 07:12 39.33104 23.83131 22182 ft 391 kts 142°
2026-04-16 07:12 39.30902 23.85162 21543 ft 386 kts 152°
2026-04-16 07:12 39.28467 23.86536 20919 ft 379 kts 160°
2026-04-16 07:12 39.25958 23.87491 20296 ft 374 kts 169°
2026-04-16 07:13 39.23395 23.87855 19678 ft 369 kts 182°
2026-04-16 07:13 39.20898 23.87254 19089 ft 363 kts 200°
2026-04-16 07:13 39.18727 23.85677 18506 ft 357 kts 218°
2026-04-16 07:13 39.17117 23.83289 17860 ft 353 kts 237°
2026-04-16 07:14 39.16260 23.80355 17198 ft 351 kts 257°
2026-04-16 07:14 39.16252 23.77225 16559 ft 350 kts 275°
2026-04-16 07:14 39.16748 23.74168 15935 ft 347 kts 282°
2026-04-16 07:14 39.17342 23.71183 15314 ft 340 kts 278°
2026-04-16 07:15 39.17694 23.68198 14708 ft 334 kts 274°
2026-04-16 07:15 39.17872 23.65242 14108 ft 327 kts 265°
2026-04-16 07:15 39.17384 23.62449 13470 ft 316 kts 242°
2026-04-16 07:15 39.16113 23.60209 12820 ft 308 kts 219°
2026-04-16 07:16 39.14317 23.58786 12191 ft 302 kts 204°
2026-04-16 07:16 39.12446 23.57669 11570 ft 299 kts 203°
2026-04-16 07:16 39.10538 23.56545 10936 ft 297 kts 203°
2026-04-16 07:16 39.08695 23.55420 10350 ft 296 kts 204°
2026-04-16 07:17 39.06830 23.54243 9724 ft 295 kts 204°
2026-04-16 07:17 39.05021 23.53077 9081 ft 294 kts 204°
2026-04-16 07:17 39.03202 23.51893 8445 ft 293 kts 204°
2026-04-16 07:17 39.01498 23.50465 7815 ft 296 kts 223°
2026-04-16 07:18 39.00374 23.48250 7208 ft 299 kts 249°
2026-04-16 07:18 39.00082 23.45626 6609 ft 298 kts 276°
2026-04-16 07:18 39.00675 23.43114 5985 ft 293 kts 304°
2026-04-16 07:18 39.02004 23.41231 5356 ft 281 kts 332°
2026-04-16 07:19 39.03764 23.40346 4732 ft 267 kts 359°
2026-04-16 07:19 39.05556 23.40608 4106 ft 257 kts 25°
2026-04-16 07:19 39.06993 23.41915 3480 ft 254 kts 48°
2026-04-16 07:19 39.08073 23.43708 2856 ft 254 kts 53°
2026-04-16 07:20 39.09105 23.45532 2490 ft 243 kts 49°
2026-04-16 07:20 39.10248 23.47003 2294 ft 225 kts 37°
2026-04-16 07:20 39.11590 23.47860 1891 ft 210 kts 17°
2026-04-16 07:20 39.12933 23.48361 1528 ft 191 kts 17°
2026-04-16 07:21 39.14125 23.48822 1336 ft 169 kts 17°
2026-04-16 07:21 39.15210 23.49256 1036 ft 156 kts 19°
2026-04-16 07:21 39.16249 23.49728 530 ft 162 kts 18°
2026-04-16 07:21 39.17336 23.50202 37 ft 166 kts 18°
2026-04-16 07:22 39.18139 23.50545 48 ft 56 kts 19°
2026-04-16 07:22 39.18303 23.50618 57 ft 18 kts 19°
2026-04-16 07:22 39.18427 23.50675 56 ft 19 kts 20°
2026-04-16 07:22 39.18516 23.50703 66 ft 8 kts 84°
2026-04-16 07:23 39.18484 23.50703 61 ft 9 kts 198°
2026-04-16 07:23 39.18389 23.50663 52 ft 20 kts 199°
2026-04-16 07:23 39.18230 23.50586 54 ft 28 kts 200°
2026-04-16 07:23 39.18027 23.50499 45 ft 33 kts 200°
2026-04-16 07:24 39.17885 23.50314 42 ft 13 kts 216°
2026-04-16 07:24 39.17866 23.50297 42 ft 4 kts 252°
2026-04-16 07:24 39.17876 23.50225 49 ft 7 kts 286°
2026-04-16 07:24 39.17878 23.50214 51 ft 0 kts 287°